EZY63DK EGKK-EDDH

Flight info

Callsign EZY63DK
Flight time 1h 21m
Altitude 39000
Route FRANE M604 PAAVO Q295 SOMVA DCT MAVAS DCT PARYD DCT GASTU DCT OSTOR/N0346F230 T904 RIBSO RIBSO3P
Aircraft A20N/M-SDE2E3FGHIRWXY/LB1

Departure

Time 2026-04-26 12:34
Airport London Gatwick Airport (EGKK)

Arrival

Time 2026-04-26 13:56
Airport Hamburg Helmut Schmidt Airport (EDDH)
Time Latitude Longitude Altitude Speed Heading
2026-04-26 12:02 51.15930 -0.17158 204 ft 0 kts 317°
2026-04-26 12:18 51.15925 -0.17151 212 ft 2 kts 316°
2026-04-26 12:18 51.15911 -0.17128 217 ft 3 kts 309°
2026-04-26 12:18 51.15899 -0.17102 212 ft 3 kts 293°
2026-04-26 12:19 51.15895 -0.17074 206 ft 3 kts 246°
2026-04-26 12:19 51.15901 -0.17062 206 ft 1 kts 199°
2026-04-26 12:19 51.15904 -0.17060 206 ft 0 kts 199°
2026-04-26 12:22 51.15897 -0.17063 206 ft 3 kts 199°
2026-04-26 12:23 51.15863 -0.17083 213 ft 7 kts 199°
2026-04-26 12:23 51.15808 -0.17133 216 ft 11 kts 236°
2026-04-26 12:23 51.15787 -0.17266 204 ft 14 kts 260°
2026-04-26 12:23 51.15768 -0.17444 209 ft 18 kts 261°
2026-04-26 12:24 51.15752 -0.17589 206 ft 15 kts 257°
2026-04-26 12:24 51.15739 -0.17685 207 ft 7 kts 257°
2026-04-26 12:24 51.15725 -0.17784 204 ft 11 kts 257°
2026-04-26 12:25 51.15687 -0.18055 212 ft 12 kts 257°
2026-04-26 12:25 51.15665 -0.18209 213 ft 16 kts 257°
2026-04-26 12:25 51.15645 -0.18335 208 ft 10 kts 246°
2026-04-26 12:25 51.15579 -0.18354 204 ft 12 kts 167°
2026-04-26 12:26 51.15489 -0.18309 211 ft 15 kts 167°
2026-04-26 12:26 51.15380 -0.18268 213 ft 18 kts 170°
2026-04-26 12:26 51.15254 -0.18222 209 ft 19 kts 179°
2026-04-26 12:26 51.15173 -0.18372 212 ft 21 kts 259°
2026-04-26 12:27 51.15148 -0.18617 204 ft 22 kts 263°
2026-04-26 12:27 51.15145 -0.18657 204 ft 3 kts 259°
2026-04-26 12:27 51.15134 -0.18713 204 ft 7 kts 251°
2026-04-26 12:27 51.15121 -0.18816 207 ft 12 kts 259°
2026-04-26 12:28 51.15103 -0.18962 207 ft 15 kts 259°
2026-04-26 12:28 51.15081 -0.19140 209 ft 18 kts 259°
2026-04-26 12:28 51.15070 -0.19222 209 ft 7 kts 254°
2026-04-26 12:28 51.15050 -0.19310 209 ft 10 kts 248°
2026-04-26 12:29 51.15027 -0.19441 215 ft 14 kts 257°
2026-04-26 12:29 51.15007 -0.19616 208 ft 18 kts 261°
2026-04-26 12:29 51.14965 -0.19948 209 ft 7 kts 258°
2026-04-26 12:30 51.14951 -0.20048 208 ft 12 kts 258°
2026-04-26 12:30 51.14931 -0.20198 205 ft 16 kts 258°
2026-04-26 12:30 51.14905 -0.20383 204 ft 19 kts 258°
2026-04-26 12:31 51.14879 -0.20574 210 ft 5 kts 257°
2026-04-26 12:31 51.14869 -0.20646 208 ft 9 kts 257°
2026-04-26 12:31 51.14853 -0.20763 207 ft 13 kts 257°
2026-04-26 12:31 51.14831 -0.20920 209 ft 16 kts 257°
2026-04-26 12:32 51.14811 -0.21063 209 ft 7 kts 257°
2026-04-26 12:32 51.14796 -0.21165 212 ft 11 kts 251°
2026-04-26 12:32 51.14656 -0.21350 206 ft 17 kts 168°
2026-04-26 12:33 51.14544 -0.21275 215 ft 19 kts 141°
2026-04-26 12:33 51.14530 -0.21082 214 ft 19 kts 70°
2026-04-26 12:33 51.14554 -0.20886 216 ft 19 kts 79°
2026-04-26 12:33 51.14622 -0.20522 210 ft 66 kts 73°
2026-04-26 12:34 51.14766 -0.19471 209 ft 125 kts 77°
2026-04-26 12:34 51.14999 -0.17881 270 ft 164 kts 75°
2026-04-26 12:34 51.15243 -0.16105 828 ft 163 kts 76°
2026-04-26 12:34 51.15523 -0.14274 1342 ft 179 kts 68°
2026-04-26 12:35 51.16008 -0.12381 1912 ft 190 kts 67°
2026-04-26 12:35 51.16505 -0.10380 2562 ft 196 kts 74°
2026-04-26 12:35 51.16753 -0.08183 2966 ft 213 kts 86°
2026-04-26 12:35 51.16900 -0.05721 3399 ft 233 kts 85°
2026-04-26 12:36 51.16984 -0.03238 3725 ft 252 kts 92°
2026-04-26 12:36 51.16871 -0.00376 4429 ft 261 kts 95°
2026-04-26 12:36 51.16771 0.02518 4802 ft 263 kts 94°
2026-04-26 12:36 51.16704 0.05457 4929 ft 264 kts 93°
2026-04-26 12:37 51.16649 0.08384 4949 ft 263 kts 92°
2026-04-26 12:37 51.16599 0.11303 4935 ft 265 kts 92°
2026-04-26 12:37 51.16549 0.14241 4946 ft 264 kts 92°
2026-04-26 12:37 51.16509 0.17180 5129 ft 266 kts 91°
2026-04-26 12:38 51.16517 0.20168 5552 ft 269 kts 90°
2026-04-26 12:38 51.16538 0.23139 5983 ft 271 kts 90°
2026-04-26 12:38 51.16557 0.26113 6407 ft 273 kts 90°
2026-04-26 12:38 51.16570 0.29145 6833 ft 275 kts 90°
2026-04-26 12:39 51.16578 0.32211 7244 ft 277 kts 90°
2026-04-26 12:39 51.16583 0.35293 7664 ft 280 kts 90°
2026-04-26 12:39 51.16587 0.38417 8090 ft 283 kts 90°
2026-04-26 12:39 51.16589 0.41560 8518 ft 285 kts 90°
2026-04-26 12:40 51.16590 0.44729 8957 ft 287 kts 90°
2026-04-26 12:40 51.16591 0.47882 9390 ft 290 kts 90°
2026-04-26 12:40 51.16791 0.51136 9843 ft 294 kts 72°
2026-04-26 12:40 51.17780 0.53954 10251 ft 294 kts 47°
2026-04-26 12:41 51.19446 0.55844 10664 ft 297 kts 20°
2026-04-26 12:41 51.21440 0.56728 11093 ft 298 kts 11°
2026-04-26 12:41 51.23481 0.57377 11518 ft 307 kts
2026-04-26 12:41 51.25621 0.58045 11953 ft 328 kts
2026-04-26 12:42 51.27944 0.58824 12407 ft 348 kts 11°
2026-04-26 12:42 51.30350 0.59683 12860 ft 358 kts 11°
2026-04-26 12:42 51.32785 0.60584 13316 ft 362 kts 11°
2026-04-26 12:42 51.35250 0.61508 13852 ft 363 kts 12°
2026-04-26 12:43 51.37720 0.62437 14269 ft 366 kts 12°
2026-04-26 12:43 51.40199 0.63373 14652 ft 365 kts 12°
2026-04-26 12:43 51.42679 0.64317 15232 ft 367 kts 12°
2026-04-26 12:43 51.45173 0.65269 16087 ft 369 kts 11°
2026-04-26 12:44 51.47682 0.66224 16868 ft 374 kts 11°
2026-04-26 12:44 51.50225 0.67192 17622 ft 378 kts 11°
2026-04-26 12:44 51.52764 0.68160 18341 ft 383 kts 11°
2026-04-26 12:44 51.53641 0.68494 18592 ft 385 kts 11°
2026-04-26 12:45 51.55750 0.69299 19121 ft 388 kts 11°
2026-04-26 12:45 51.58381 0.70306 19830 ft 390 kts 11°
2026-04-26 12:45 51.61041 0.71323 20520 ft 394 kts 11°
2026-04-26 12:45 51.63669 0.72325 21147 ft 397 kts 11°
2026-04-26 12:46 51.66424 0.73378 21841 ft 401 kts 11°
2026-04-26 12:46 51.69153 0.74421 22483 ft 404 kts 11°
2026-04-26 12:46 51.71843 0.75451 23105 ft 408 kts 11°
2026-04-26 12:46 51.74680 0.76517 23756 ft 411 kts
2026-04-26 12:47 51.77504 0.77320 24296 ft 415 kts 11°
2026-04-26 12:47 51.80212 0.78739 24807 ft 421 kts 22°
2026-04-26 12:47 51.82799 0.81079 25338 ft 427 kts 32°
2026-04-26 12:47 51.85010 0.83851 25774 ft 433 kts 41°
2026-04-26 12:48 51.86968 0.87663 26253 ft 441 kts 56°
2026-04-26 12:48 51.88378 0.92092 26703 ft 446 kts 65°
2026-04-26 12:48 51.89541 0.96813 27153 ft 451 kts 68°
2026-04-26 12:48 51.90657 1.01594 27599 ft 454 kts 68°
2026-04-26 12:49 51.91802 1.06396 27912 ft 461 kts 67°
2026-04-26 12:49 51.93000 1.11262 28034 ft 471 kts 66°
2026-04-26 12:49 51.94253 1.16249 28148 ft 481 kts 66°
2026-04-26 12:49 51.95536 1.21310 28338 ft 488 kts 66°
2026-04-26 12:50 51.96833 1.26421 28698 ft 491 kts 66°
2026-04-26 12:50 51.98102 1.31433 29037 ft 493 kts 66°
2026-04-26 12:50 51.99440 1.36728 29376 ft 496 kts 66°
2026-04-26 12:50 52.00703 1.41858 29689 ft 499 kts 67°
2026-04-26 12:51 52.01940 1.47181 29978 ft 502 kts 68°
2026-04-26 12:51 52.03155 1.52488 30278 ft 503 kts 67°
2026-04-26 12:51 52.04381 1.57835 30488 ft 505 kts 67°
2026-04-26 12:51 52.05614 1.63194 30681 ft 507 kts 67°
2026-04-26 12:52 52.06849 1.68557 30881 ft 508 kts 67°
2026-04-26 12:52 52.08089 1.73942 31111 ft 508 kts 67°
2026-04-26 12:52 52.09312 1.79262 31372 ft 507 kts 67°
2026-04-26 12:52 52.10557 1.84689 31648 ft 507 kts 67°
2026-04-26 12:53 52.11790 1.90079 31917 ft 506 kts 67°
2026-04-26 12:53 52.13005 1.95403 32164 ft 506 kts 67°
2026-04-26 12:53 52.14232 2.00794 32508 ft 504 kts 67°
2026-04-26 12:53 52.15451 2.06161 32799 ft 503 kts 67°
2026-04-26 12:54 52.16661 2.11501 33050 ft 502 kts 67°
2026-04-26 12:54 52.17851 2.16766 33282 ft 502 kts 67°
2026-04-26 12:54 52.19056 2.22114 33537 ft 502 kts 67°
2026-04-26 12:54 52.20257 2.27457 33781 ft 501 kts 67°
2026-04-26 12:55 52.21461 2.32826 34006 ft 501 kts 67°
2026-04-26 12:55 52.22646 2.38125 34235 ft 501 kts 67°
2026-04-26 12:55 52.23835 2.43453 34434 ft 501 kts 67°
2026-04-26 12:55 52.25032 2.48832 34690 ft 499 kts 67°
2026-04-26 12:56 52.26209 2.54137 34977 ft 497 kts 67°
2026-04-26 12:56 52.27371 2.59389 35150 ft 497 kts 67°
2026-04-26 12:56 52.28543 2.64696 35338 ft 496 kts 67°
2026-04-26 12:56 52.29711 2.69998 35530 ft 496 kts 67°
2026-04-26 12:57 52.30878 2.75312 35713 ft 495 kts 67°
2026-04-26 12:57 52.32038 2.80600 35895 ft 495 kts 67°
2026-04-26 12:57 52.33198 2.85909 36075 ft 494 kts 68°
2026-04-26 12:58 52.35505 2.96506 36427 ft 493 kts 68°
2026-04-26 12:58 52.36636 3.01723 36666 ft 491 kts 67°
2026-04-26 12:58 52.37769 3.06963 36851 ft 490 kts 68°
2026-04-26 12:58 52.38900 3.12203 37006 ft 490 kts 68°
2026-04-26 12:59 52.40004 3.17520 37155 ft 491 kts 71°
2026-04-26 12:59 52.40918 3.22935 37299 ft 491 kts 72°
2026-04-26 12:59 52.41838 3.28318 37449 ft 491 kts 71°
2026-04-26 12:59 52.42769 3.33703 37589 ft 490 kts 71°
2026-04-26 13:00 52.43699 3.39083 37721 ft 490 kts 71°
2026-04-26 13:00 52.44589 3.44249 37850 ft 490 kts 71°
2026-04-26 13:00 52.45544 3.49837 38014 ft 489 kts 71°
2026-04-26 13:00 52.46455 3.55197 38206 ft 488 kts 71°
2026-04-26 13:01 52.47362 3.60561 38339 ft 487 kts 72°
2026-04-26 13:01 52.48256 3.65865 38437 ft 488 kts 72°
2026-04-26 13:01 52.49153 3.71207 38560 ft 487 kts 72°
2026-04-26 13:01 52.50053 3.76584 38675 ft 487 kts 72°
2026-04-26 13:02 52.50947 3.81942 38784 ft 487 kts 72°
2026-04-26 13:02 52.51839 3.87302 38896 ft 486 kts 72°
2026-04-26 13:02 52.53316 3.96212 39062 ft 486 kts 72°
2026-04-26 13:03 52.54209 4.01630 39259 ft 482 kts 72°
2026-04-26 13:03 52.55065 4.06844 39341 ft 473 kts 72°
2026-04-26 13:03 52.56772 4.17267 39356 ft 474 kts 72°
2026-04-26 13:04 52.58480 4.27756 39345 ft 474 kts 72°
2026-04-26 13:04 52.60174 4.38228 39353 ft 474 kts 72°
2026-04-26 13:05 52.61749 4.48026 39347 ft 474 kts 72°
2026-04-26 13:05 52.63424 4.58508 39346 ft 475 kts 72°
2026-04-26 13:06 52.65106 4.69098 39347 ft 475 kts 72°
2026-04-26 13:06 52.66768 4.79628 39350 ft 475 kts 72°
2026-04-26 13:07 52.68422 4.90175 39358 ft 475 kts 73°
2026-04-26 13:07 52.69244 4.95450 39219 ft 472 kts 73°
2026-04-26 13:07 52.70058 5.00687 38733 ft 471 kts 73°
2026-04-26 13:08 52.70862 5.05872 37868 ft 475 kts 73°
2026-04-26 13:08 52.71680 5.11164 37477 ft 477 kts 73°
2026-04-26 13:08 52.72493 5.16433 37348 ft 484 kts 73°
2026-04-26 13:08 52.73334 5.21905 37347 ft 485 kts 73°
2026-04-26 13:09 52.74981 5.32700 37354 ft 484 kts 73°
2026-04-26 13:09 52.76615 5.43477 37350 ft 484 kts 73°
2026-04-26 13:10 52.78242 5.54276 37352 ft 484 kts 73°
2026-04-26 13:10 52.79860 5.65088 37341 ft 484 kts 73°
2026-04-26 13:11 52.81468 5.75909 37343 ft 484 kts 73°
2026-04-26 13:11 52.83065 5.86729 37334 ft 484 kts 74°
2026-04-26 13:12 52.84643 5.97486 37331 ft 484 kts 74°
2026-04-26 13:12 52.86222 6.08333 37340 ft 485 kts 74°
2026-04-26 13:13 52.87794 6.19205 37331 ft 485 kts 74°
2026-04-26 13:13 52.89355 6.30084 37329 ft 485 kts 74°
2026-04-26 13:14 52.90905 6.40957 37331 ft 485 kts 75°
2026-04-26 13:14 52.92434 6.51760 37331 ft 485 kts 75°
2026-04-26 13:15 52.93958 6.62599 37342 ft 486 kts 75°
2026-04-26 13:15 52.95478 6.73495 37340 ft 486 kts 75°
2026-04-26 13:16 52.96991 6.84429 37340 ft 486 kts 75°
2026-04-26 13:16 52.98498 6.95391 37337 ft 486 kts 75°
2026-04-26 13:17 53.00732 7.11796 37329 ft 483 kts 75°
2026-04-26 13:18 53.02939 7.27951 37324 ft 479 kts 71°
2026-04-26 13:18 53.05954 7.37669 37328 ft 472 kts 47°
2026-04-26 13:19 53.08261 7.41513 37331 ft 467 kts 35°
2026-04-26 13:19 53.13673 7.47340 37332 ft 463 kts 28°
2026-04-26 13:20 53.19149 7.53060 37326 ft 463 kts 29°
2026-04-26 13:20 53.24560 7.58796 37330 ft 463 kts 29°
2026-04-26 13:21 53.29996 7.64611 37323 ft 464 kts 32°
2026-04-26 13:21 53.34507 7.72431 37084 ft 474 kts 54°
2026-04-26 13:21 53.36268 7.77120 36826 ft 476 kts 56°
2026-04-26 13:22 53.37960 7.81822 36562 ft 477 kts 56°
2026-04-26 13:22 53.39695 7.86627 36301 ft 477 kts 56°
2026-04-26 13:22 53.41431 7.91373 36053 ft 477 kts 56°
2026-04-26 13:22 53.43184 7.96119 35803 ft 478 kts 56°
2026-04-26 13:23 53.44924 8.00810 35561 ft 479 kts 56°
2026-04-26 13:23 53.46675 8.05525 35322 ft 480 kts 56°
2026-04-26 13:23 53.48454 8.10324 35086 ft 481 kts 56°
2026-04-26 13:23 53.50223 8.15101 34836 ft 482 kts 56°
2026-04-26 13:24 53.51991 8.19891 34593 ft 482 kts 56°
2026-04-26 13:24 53.53758 8.24683 34360 ft 483 kts 56°
2026-04-26 13:24 53.55529 8.29499 34095 ft 483 kts 56°
2026-04-26 13:24 53.57277 8.34261 33821 ft 485 kts 56°
2026-04-26 13:25 53.59073 8.39163 33544 ft 486 kts 56°
2026-04-26 13:25 53.60823 8.43947 33075 ft 487 kts 56°
2026-04-26 13:25 53.62600 8.48814 32361 ft 488 kts 56°
2026-04-26 13:25 53.64382 8.53708 31653 ft 488 kts 56°
2026-04-26 13:26 53.66146 8.58563 30925 ft 485 kts 56°
2026-04-26 13:26 53.67890 8.63373 30178 ft 475 kts 56°
2026-04-26 13:26 53.69603 8.68108 29366 ft 471 kts 56°
2026-04-26 13:26 53.71303 8.72812 28577 ft 468 kts 56°
2026-04-26 13:27 53.72985 8.77475 27804 ft 463 kts 56°
2026-04-26 13:27 53.74665 8.82142 26966 ft 463 kts 56°
2026-04-26 13:27 53.76309 8.86715 26108 ft 458 kts 56°
2026-04-26 13:27 53.77968 8.91341 25253 ft 451 kts 56°
2026-04-26 13:28 53.79566 8.95806 24426 ft 443 kts 56°
2026-04-26 13:28 53.81144 9.00298 23542 ft 438 kts 60°
2026-04-26 13:28 53.82232 9.05055 22606 ft 438 kts 75°
2026-04-26 13:28 53.82612 9.10079 21692 ft 434 kts 89°
2026-04-26 13:29 53.82372 9.15167 20789 ft 428 kts 95°
2026-04-26 13:29 53.82169 9.18539 20207 ft 425 kts 95°
2026-04-26 13:29 53.81789 9.25075 19190 ft 415 kts 95°
2026-04-26 13:29 53.81511 9.29880 18549 ft 405 kts 95°
2026-04-26 13:30 53.81238 9.34547 17828 ft 396 kts 95°
2026-04-26 13:30 53.80719 9.38951 17134 ft 395 kts 110°
2026-04-26 13:30 53.79417 9.42998 16475 ft 391 kts 129°
2026-04-26 13:30 53.77432 9.46109 15957 ft 392 kts 149°
2026-04-26 13:31 53.74963 9.48092 15446 ft 391 kts 163°
2026-04-26 13:31 53.72386 9.49448 14937 ft 385 kts 166°
2026-04-26 13:31 53.69849 9.50624 14433 ft 380 kts 168°
2026-04-26 13:31 53.67257 9.51261 13918 ft 372 kts 182°
2026-04-26 13:32 53.64718 9.50813 13340 ft 364 kts 196°
2026-04-26 13:32 53.62379 9.49322 12667 ft 357 kts 215°
2026-04-26 13:32 53.60545 9.46610 11985 ft 348 kts 236°
2026-04-26 13:32 53.59435 9.43063 11354 ft 341 kts 255°
2026-04-26 13:33 53.59013 9.39183 10737 ft 335 kts 270°
2026-04-26 13:33 53.59208 9.35362 10433 ft 322 kts 284°
2026-04-26 13:33 53.59898 9.31917 10336 ft 304 kts 297°
2026-04-26 13:33 53.61020 9.28882 10320 ft 307 kts 309°
2026-04-26 13:34 53.62521 9.26379 10320 ft 306 kts 322°
2026-04-26 13:34 53.64336 9.24543 10327 ft 306 kts 335°
2026-04-26 13:34 53.66368 9.23488 10322 ft 306 kts 348°
2026-04-26 13:34 53.67809 9.23255 10322 ft 308 kts 358°
2026-04-26 13:35 53.70629 9.23969 10319 ft 312 kts 15°
2026-04-26 13:35 53.72609 9.25511 10321 ft 316 kts 27°
2026-04-26 13:35 53.74509 9.27390 10319 ft 316 kts 27°
2026-04-26 13:35 53.76409 9.29275 10320 ft 317 kts 27°
2026-04-26 13:36 53.78314 9.31153 10304 ft 315 kts 27°
2026-04-26 13:36 53.80184 9.32988 10200 ft 303 kts 27°
2026-04-26 13:36 53.81899 9.34676 10037 ft 286 kts 29°
2026-04-26 13:36 53.83345 9.37030 9543 ft 285 kts 55°
2026-04-26 13:37 53.83987 9.40202 9274 ft 293 kts 83°
2026-04-26 13:37 53.83866 9.43673 8948 ft 297 kts 96°
2026-04-26 13:37 53.83639 9.46756 8433 ft 294 kts 93°
2026-04-26 13:37 53.83593 9.47866 8250 ft 293 kts 91°
2026-04-26 13:38 53.83611 9.51300 7651 ft 289 kts 84°
2026-04-26 13:38 53.83829 9.54659 7091 ft 285 kts 80°
2026-04-26 13:38 53.84163 9.57957 6511 ft 282 kts 78°
2026-04-26 13:38 53.84525 9.61041 5926 ft 280 kts 78°
2026-04-26 13:39 53.84926 9.64322 5330 ft 278 kts 78°
2026-04-26 13:39 53.85317 9.67521 4728 ft 276 kts 78°
2026-04-26 13:39 53.85677 9.70490 4231 ft 272 kts 78°
2026-04-26 13:39 53.86050 9.73606 4027 ft 258 kts 78°
2026-04-26 13:40 53.86415 9.76671 3993 ft 267 kts 78°
2026-04-26 13:40 53.86661 9.79533 3999 ft 265 kts 87°
2026-04-26 13:40 53.86574 9.82761 4010 ft 267 kts 98°
2026-04-26 13:40 53.86336 9.85876 4004 ft 263 kts 97°
2026-04-26 13:41 53.86120 9.88889 3999 ft 254 kts 96°
2026-04-26 13:41 53.86186 9.91858 3994 ft 254 kts 85°
2026-04-26 13:41 53.86357 9.94844 4003 ft 257 kts 84°
2026-04-26 13:41 53.86534 9.97853 3986 ft 256 kts 84°
2026-04-26 13:42 53.86710 10.00863 3977 ft 255 kts 84°
2026-04-26 13:42 53.86877 10.03838 3999 ft 256 kts 84°
2026-04-26 13:42 53.87048 10.06854 3999 ft 258 kts 84°
2026-04-26 13:42 53.87219 10.09875 3986 ft 256 kts 84°
2026-04-26 13:43 53.87390 10.12875 4000 ft 254 kts 85°
2026-04-26 13:43 53.87555 10.15867 3999 ft 256 kts 85°
2026-04-26 13:43 53.87715 10.18888 4005 ft 257 kts 85°
2026-04-26 13:43 53.87877 10.21903 3993 ft 256 kts 85°
2026-04-26 13:44 53.88039 10.24856 3997 ft 255 kts 84°
2026-04-26 13:44 53.88413 10.27796 3995 ft 256 kts 66°
2026-04-26 13:44 53.89373 10.30329 3997 ft 255 kts 49°
2026-04-26 13:44 53.90524 10.32631 3991 ft 254 kts 49°
2026-04-26 13:45 53.91665 10.34930 3995 ft 255 kts 49°
2026-04-26 13:45 53.92808 10.37244 4001 ft 251 kts 49°
2026-04-26 13:45 53.93899 10.39455 3895 ft 238 kts 49°
2026-04-26 13:45 53.94909 10.41523 3798 ft 220 kts 50°
2026-04-26 13:46 53.95646 10.43773 3809 ft 222 kts 77°
2026-04-26 13:46 53.95596 10.46276 3799 ft 219 kts 111°
2026-04-26 13:46 53.94736 10.48363 3805 ft 217 kts 139°
2026-04-26 13:46 53.93562 10.50000 3806 ft 216 kts 144°
2026-04-26 13:47 53.92369 10.51541 3783 ft 206 kts 144°
2026-04-26 13:47 53.91184 10.52632 3827 ft 188 kts 168°
2026-04-26 13:47 53.89917 10.52509 3805 ft 185 kts 204°
2026-04-26 13:47 53.88854 10.51328 3802 ft 182 kts 224°
2026-04-26 13:48 53.88024 10.49843 3744 ft 172 kts 231°
2026-04-26 13:48 53.87259 10.48272 3517 ft 173 kts 232°
2026-04-26 13:48 53.86504 10.46707 3215 ft 172 kts 232°
2026-04-26 13:48 53.85748 10.45146 3017 ft 165 kts 231°
2026-04-26 13:49 53.84975 10.43560 2996 ft 195 kts 231°
2026-04-26 13:49 53.84058 10.41686 3002 ft 212 kts 231°
2026-04-26 13:49 53.83134 10.39787 3008 ft 208 kts 231°
2026-04-26 13:49 53.82509 10.38510 2988 ft 217 kts 231°
2026-04-26 13:50 53.81548 10.36543 3005 ft 213 kts 231°
2026-04-26 13:50 53.80592 10.34588 2999 ft 216 kts 231°
2026-04-26 13:50 53.79643 10.32642 2994 ft 217 kts 231°
2026-04-26 13:50 53.78669 10.30657 2997 ft 219 kts 231°
2026-04-26 13:51 53.77688 10.28653 2995 ft 219 kts 231°
2026-04-26 13:51 53.76716 10.26679 2960 ft 219 kts 230°
2026-04-26 13:51 53.75744 10.24694 2691 ft 218 kts 231°
2026-04-26 13:51 53.74786 10.22728 2498 ft 212 kts 231°
2026-04-26 13:52 53.73879 10.20893 2523 ft 194 kts 231°
2026-04-26 13:52 53.73058 10.19209 2420 ft 181 kts 231°
2026-04-26 13:52 53.72267 10.17593 2315 ft 180 kts 231°
2026-04-26 13:52 53.71470 10.15977 2376 ft 176 kts 231°
2026-04-26 13:53 53.70734 10.14473 2395 ft 162 kts 231°
2026-04-26 13:53 53.70020 10.13020 2369 ft 161 kts 231°
2026-04-26 13:53 53.69329 10.11610 2110 ft 150 kts 231°
2026-04-26 13:53 53.68660 10.10261 1753 ft 150 kts 231°
2026-04-26 13:54 53.67998 10.08906 1531 ft 147 kts 232°
2026-04-26 13:54 53.67362 10.07623 1440 ft 139 kts 230°
2026-04-26 13:54 53.66733 10.06361 1130 ft 144 kts 230°
2026-04-26 13:55 53.65448 10.03726 638 ft 145 kts 231°
2026-04-26 13:55 53.65035 10.02906 469 ft 140 kts 232°
2026-04-26 13:55 53.63576 9.99933 99 ft 138 kts 231°
2026-04-26 13:56 53.63010 9.98779 49 ft 100 kts 230°
2026-04-26 13:56 53.62740 9.98228 50 ft 34 kts 231°
2026-04-26 13:56 53.62606 9.97993 48 ft 29 kts 235°
2026-04-26 13:56 53.62486 9.97746 46 ft 0 kts 189°
2026-04-26 13:57 53.62469 9.97787 47 ft 1 kts 129°
2026-04-26 13:57 53.62462 9.97802 47 ft 2 kts 129°
2026-04-26 13:57 53.62449 9.97829 48 ft 4 kts 129°
2026-04-26 13:57 53.62426 9.97921 50 ft 15 kts 90°
2026-04-26 13:58 53.62473 9.98165 50 ft 29 kts 73°
2026-04-26 13:58 53.62496 9.98436 48 ft 16 kts 76°
2026-04-26 13:58 53.62515 9.98679 50 ft 22 kts 79°
2026-04-26 13:58 53.62535 9.98932 50 ft 9 kts 88°
2026-04-26 13:59 53.62538 9.98958 48 ft 4 kts 77°
2026-04-26 13:59 53.62552 9.99032 48 ft 9 kts 70°
2026-04-26 13:59 53.62570 9.99155 50 ft 13 kts 79°
2026-04-26 14:00 53.62646 9.99790 49 ft 23 kts 78°
2026-04-26 14:00 53.62670 9.99876 48 ft 9 kts 42°
2026-04-26 14:00 53.62711 9.99906 48 ft 11 kts 15°
2026-04-26 14:01 53.62812 9.99970 50 ft 13 kts 30°
2026-04-26 14:01 53.62865 10.00024 49 ft 7 kts 37°
2026-04-26 14:01 53.62918 10.00093 49 ft 12 kts 38°
2026-04-26 14:01 53.62972 10.00163 50 ft 3 kts 35°
2026-04-26 14:02 53.62993 10.00207 50 ft 6 kts 84°
2026-04-26 14:02 53.62968 10.00280 50 ft 0 kts 124°
2026-04-26 14:02 53.62965 10.00288 50 ft 0 kts 121°
2026-04-26 14:03 53.62966 10.00287 50 ft 0 kts 121°